カタログに戻る

STARLINK-38047

運用中通信SSO
NORAD 69745·PAYLOAD·🇺🇸 United States

打ち上げ Jul 2, 2026 から Vandenberg Space Force Base

Loading…

次のパス (今後24時間)

TLE

最新Source: CelesTrak SupGP

元期: Sep 15, 2026, 03:36 UTC

1 69745C 26150G   26258.15048611 -.00054135  00000+0 -16803-2 0  2581
2 69745  97.2845  97.1856 0001972  92.4868  70.6641 15.33468529    11

AllMySatでSTARLINK-38047をリアルタイム追跡

Download on the App Store